Newport, AR

5:14 AM CDT on May 28, 2018 (GMT -0500)
Newport

Weather History for KM19 - September, 2012

Change the Weather History Date:

Wednesday, September 12, 2012

  Actual Average (KBVX) Record (KBVX)
Temperature  
Mean Temperature 72 °F -  
Max Temperature 82 °F 86 °F 103 °F (1980)
Min Temperature 61 °F 62 °F 46 °F (1954)
Cooling Degree Days 6    
Growing Degree Days 22 (Base 50)    
Moisture  
Dew Point 61 °F    
Average Humidity 72    
Maximum Humidity 93    
Minimum Humidity 41    
Precipitation  
Precipitation 0.00 in - - ()
Sea Level Pressure  
Sea Level Pressure 30.15 in    
Wind  
Wind Speed 6 mph (SSE)    
Max Wind Speed 13 mph    
Max Gust Speed -    
Visibility 10 miles    
Events      
Averages and records for this station are not official NWS values.
T = Trace of Precipitation, MM = Missing Value Source: NWS Daily Summary

Daily Weather History Graph

Daily Weather History Graph

Search for Another Location

Airport or City:

Astronomy

Sep. 12, 2012 Rise Set
Actual Time 6:45 AM CDT 7:15 PM CDT
Civil Twilight 6:19 AM CDT 7:41 PM CDT
Nautical Twilight 5:49 AM CDT 8:11 PM CDT
Astronomical Twilight 5:18 AM CDT 8:41 PM CDT
Moon 3:08 AM CDT (9/12) 4:58 PM CDT (9/12)
Length of Visible Light 13h 21m
Length of Day
12h 29m
Waning Crescent, 13% of the Moon is Illuminated
Sep 12
Waning Crescent
Sep 15
New
Sep 22
First Quarter
Sep 29
Full
Oct 8
Last Quarter

Hourly Weather History & Observations

Time (CDT) Temp. Heat Index Dew Point Humidity Pressure Visibility Wind Dir Wind Speed Gust Speed Precip Events Conditions
12:56 AM 64.9 °F - 61.0 °F 87% 30.13 in 10.0 mi Variable 3.5 mph - N/A   Partly Cloudy
1:56 AM 64.9 °F - 61.0 °F 87% 30.13 in 10.0 mi SSE 5.8 mph - N/A   Overcast
2:56 AM 63.9 °F - 59.9 °F 87% 30.13 in 10.0 mi South 5.8 mph - N/A   Clear
3:56 AM 63.9 °F - 59.9 °F 87% 30.12 in 10.0 mi Calm Calm - N/A   Partly Cloudy
4:56 AM 63.9 °F - 59.9 °F 87% 30.14 in 10.0 mi South 3.5 mph - N/A   Mostly Cloudy
5:56 AM 61.9 °F - 59.9 °F 93% 30.15 in 10.0 mi SSE 5.8 mph - N/A   Scattered Clouds
6:56 AM 63.0 °F - 59.9 °F 90% 30.17 in 10.0 mi SE 4.6 mph - N/A   Scattered Clouds
7:56 AM 66.9 °F - 63.0 °F 87% 30.19 in 10.0 mi North - - N/A   Scattered Clouds
8:56 AM 70.0 °F - 63.9 °F 81% 30.20 in 10.0 mi SSE 4.6 mph - N/A   Mostly Cloudy
9:56 AM 73.9 °F - 63.9 °F 71% 30.21 in 10.0 mi South 10.4 mph - N/A   Overcast
10:56 AM 77.0 °F - 63.0 °F 62% 30.22 in 10.0 mi SSE 10.4 mph - N/A   Overcast
11:56 AM 79.9 °F - 63.9 °F 58% 30.21 in 10.0 mi South 9.2 mph - N/A   Overcast
12:56 PM 81.9 °F 83.1 °F 63.0 °F 53% 30.19 in 10.0 mi SSE 10.4 mph - N/A   Mostly Cloudy
1:56 PM 82.9 °F 83.3 °F 61.0 °F 47% 30.17 in 10.0 mi SE 10.4 mph - N/A   Mostly Cloudy
2:56 PM 81.9 °F 82.1 °F 59.0 °F 46% 30.14 in 10.0 mi SE 12.7 mph - N/A   Scattered Clouds
3:56 PM 82.9 °F 82.4 °F 56.8 °F 41% 30.13 in 10.0 mi South 9.2 mph - N/A   Partly Cloudy
4:56 PM 82.9 °F 82.8 °F 59.0 °F 44% 30.12 in 10.0 mi Variable 6.9 mph - N/A   Partly Cloudy
5:56 PM 81.9 °F 82.2 °F 59.9 °F 47% 30.11 in 10.0 mi SE 9.2 mph - N/A   Clear
6:56 PM 74.8 °F - 63.9 °F 69% 30.11 in 10.0 mi ESE 4.6 mph - N/A   Clear
7:56 PM 70.9 °F - 63.9 °F 78% 30.12 in 10.0 mi ESE 5.8 mph - N/A   Clear
8:56 PM 68.9 °F - 61.9 °F 78% 30.13 in 10.0 mi East 5.8 mph - N/A   Clear
9:56 PM 66.9 °F - 61.0 °F 81% 30.14 in 10.0 mi ESE 5.8 mph - N/A   Clear
10:56 PM 65.8 °F - 61.0 °F 84% 30.15 in 10.0 mi South 6.9 mph - N/A   Clear
11:56 PM 65.8 °F - 61.0 °F 84% 30.15 in 10.0 mi SSE 5.8 mph - N/A   Clear